Weather Roundup
Issued by NWS Springfield, MO

Home | Current Version | Previous Version | Text Only | Print | Product List | Glossary On
Versions: 1 2 3 4 5 6 7 8 9 10 11 12 13 14 15 16 17 18 19 20 21 22 23 24 25 26 27 28 29 30 31 32 33 34 35 36 37 38 39 40 41 42 43 44 45 46 47 48 49 50
000
NZUS99 KSGF 230459
HRRSGF

HOURLY WEATHER
NATIONAL WEATHER SERVICE SPRINGFIELD MO
1100 PM CST SAT NOV 22 2014

......SGF CWA......

CITY           SKY/WX    TMP DP  RH WIND       PRES   REMARKS
SPRINGFIELD    CLEAR     53  50  89 S17       29.78F
JOPLIN         PTCLDY    56  52  86 SE9       29.73F
WEST PLAINS    CLEAR     51  46  83 S9        29.88F
ROLLA          MOCLDY    52  48  86 S14G25    29.82F
OSAGE BEACH    PTCLDY    54  46  76 S8        29.80F

......SURROUNDING SGF CWA......

CITY           SKY/WX    TMP DP  RH WIND       PRES   REMARKS
CHANUTE        CLOUDY    53  51  93 SE10      29.70F
PARSONS        MOCLDY    54  52  93 CALM      29.71F
COFFEYVILLE    MOCLDY    54  51  90 S7        29.70F
EMPORIA        CLOUDY    54  52  93 S13G21    29.66F
SILOAM SPRINGS CLOUDY    55  48  76 S13G18    29.77F
HARRISON AR    MOCLDY    52  51  97 S14       29.83F
NEAR YELLVILLE PTCLDY    54  48  82 S6        29.86F

......KANSAS AND MISSOURI......

CITY           SKY/WX    TMP DP  RH WIND       PRES   REMARKS
KANSAS CTY INT CLOUDY    55  51  86 S16       29.69F
DOWNTOWN KC    CLOUDY    57  51  80 S8G18     29.70F
COLUMBIA       CLOUDY    54  50  86 S17       29.80F
SEDALIA        MOCLDY    53  49  86 S14       29.76F
ST JOSEPH      CLOUDY    54  51  90 S13       29.68F
ST LOUIS       LGT RAIN  55  50  83 S10       29.88F
SPIRIT OF STL  LGT RAIN  54  50  86 S7        29.86F
KIRKSVILLE     CLOUDY    54  51  90 S14       29.76R
WICHITA        CLOUDY    54  51  90 S21G28    29.64F
TOPEKA         CLOUDY    57  52  83 S9        29.68F
OLATHE         CLOUDY    54  51  90 S10       29.70F

......TENNESSEE......

CITY           SKY/WX    TMP DP  RH WIND       PRES   REMARKS
MEMPHIS        MOCLDY    60  48  64 S12       29.95F
NASHVILLE      CLOUDY    55  37  50 SE8       30.08F

......ARKANSAS.......

CITY           SKY/WX    TMP DP  RH WIND       PRES   REMARKS
FAYETTEVILLE   MOCLDY    57  52  83 SE9       29.77F
FT SMITH       CLOUDY    53  51  93 E7        29.79F FOG
LITTLE ROCK    CLOUDY    59  50  72 SE7       29.89F

......OKLAHOMA.......

CITY           SKY/WX    TMP DP  RH WIND       PRES   REMARKS
TULSA          CLOUDY    56  54  93 S8        29.70F
PONCA CITY     CLOUDY    57  53  86 SE20G29   29.65F
MCALESTER      CLOUDY    58  56  93 SE13G18   29.69F
OKLAHOMA CITY  CLOUDY    57  54  89 S15       29.67F

......IOWA............

CITY           SKY/WX    TMP DP  RH WIND       PRES   REMARKS
DES MOINES     CLOUDY    55  49  80 SW22G28   29.65S
QUAD CITIES    CLOUDY    51  47  86 S17G24    29.76F

......ILLINOIS........

CITY           SKY/WX    TMP DP  RH WIND       PRES   REMARKS
QUINCY         CLOUDY    53  49  86 S13       29.79F
CHICAGO        CLOUDY    52  46  80 S12G24    29.83F



USA.gov is the U.S. government's official web portal to all federal, state and local government web resources and services.